Location: ????????
(37.6846°N, 24.0673°E)
Time: 15:03:21
(UTC+00:00)

CZ-2C R/B - Pass Details

Date: 14 July 2020
Orbit: 503 x 566 km, 97.7° (Epoch: 03 August)

Event Time Altitude Azimuth Distance (km) Brightness Sun altitude
Rises 02:12:47 0° 4° (N) 2,772 7.1 -10.9°
Reaches altitude 10° 02:15:00 10° 357° (N) 1,870 6.0 -10.5°
Maximum altitude 02:18:50 41° 287° (WNW) 820 3.4 -9.9°
Enters shadow 02:22:21 12° 218° (SW) 1,744 4.8 -9.4°
